EW7038 Weather Reports


Display with metric or nautical units.
time (UTC)temp
F
wind
direction
speed
MPH
gust
MPH
rain 1hr
in
rain 24hr
in
rain mn
in
humidity
%
barometer
mb
20260509051306 60 263 3.0 7.0 0.00 0.00 0.00 49 1020.7
20260509050805 60 101 3.0 6.0 0.00 0.00 0.00 49 1020.7
20260509050305 61 187 3.0 10.0 0.00 0.00 0.00 48 1020.5
20260509045805 61 278 5.0 13.0 0.00 0.00 0.00 48 1020.6
20260509045306 61 276 5.0 12.0 0.00 0.00 0.00 48 1020.5
20260509044305 61 264 7.0 12.0 0.00 0.00 0.00 47 1020.5
20260509043805 61 266 3.0 8.0 0.00 0.00 0.00 48 1020.4
20260509043306 61 173 3.0 9.0 0.00 0.00 0.00 47 1020.4
20260509042805 61 284 4.0 9.0 0.00 0.00 0.00 47 1020.3
20260509042307 61 308 5.0 12.0 0.00 0.00 0.00 47 1020.3
20260509041805 61 246 5.0 12.0 0.00 0.00 0.00 46 1020.3
20260509041305 61 324 2.0 8.0 0.00 0.00 0.00 46 1020.1
20260509040806 61 290 3.0 6.0 0.00 0.00 0.00 46 1020.0
20260509040306 61 332 5.0 12.0 0.00 0.00 0.00 46 1019.9
20260509035805 62 291 5.0 12.0 0.00 0.00 0.00 46 1019.9
20260509035306 62 256 4.0 12.0 0.00 0.00 0.00 46 1019.8
20260509034305 62 231 3.0 13.0 0.00 0.00 0.00 45 1019.6
20260509032806 62 234 6.0 15.0 0.00 0.00 0.00 45 1019.5
20260509032306 62 301 3.0 15.0 0.00 0.00 0.00 45 1019.4
20260509031805 62 272 6.0 15.0 0.00 0.00 0.00 44 1019.4
20260509031305 62 249 6.0 16.0 0.00 0.00 0.00 44 1019.2
20260509030306 62 280 8.0 13.0 0.00 0.00 0.00 44 1019.1
20260509025805 62 308 6.0 16.0 0.00 0.00 0.00 44 1019.0
20260509025307 63 283 6.0 12.0 0.00 0.00 0.00 44 1019.0
20260509024805 63 266 7.0 16.0 0.00 0.00 0.00 42 1018.9
20260509024306 63 293 8.0 18.0 0.00 0.00 0.00 41 1018.7
20260509023805 64 294 10.0 20.0 0.00 0.00 0.00 41 1018.8
20260509023306 64 283 9.0 18.0 0.00 0.00 0.00 41 1018.7
20260509022806 64 298 10.0 20.0 0.00 0.00 0.00 41 1018.7
20260509021805 64 309 10.0 21.0 0.00 0.00 0.00 40 1018.6
20260509021305 64 250 10.0 30.0 0.00 0.00 0.00 40 1018.7
20260509020805 64 291 12.0 23.0 0.00 0.00 0.00 40 1018.5
20260509020305 64 288 12.0 23.0 0.00 0.00 0.00 39 1018.5
20260509015306 65 275 12.0 21.0 0.00 0.00 0.00 39 1018.4
20260509014806 65 289 9.0 26.0 0.00 0.00 0.00 39 1018.5
20260509014305 65 292 11.0 24.0 0.00 0.00 0.00 39 1018.4
20260509013805 65 268 9.0 28.0 0.00 0.00 0.00 39 1018.5
20260509012805 65 274 14.0 25.0 0.00 0.00 0.00 39 1018.5
20260509012307 65 297 14.0 26.0 0.00 0.00 0.00 39 1018.3
20260509011805 65 282 10.0 23.0 0.00 0.00 0.00 39 1018.4
20260509011305 65 279 10.0 26.0 0.00 0.00 0.00 38 1018.4
20260509010805 65 287 9.0 22.0 0.00 0.00 0.00 38 1018.4
20260509010305 65 276 12.0 28.0 0.00 0.00 0.00 38 1018.4
20260509004805 65 280 9.0 17.0 0.00 0.00 0.00 38 1018.4
20260509004306 65 294 6.0 17.0 0.00 0.00 0.00 37 1018.4
20260509003806 65 270 11.0 26.0 0.00 0.00 0.00 38 1018.4
20260509003305 65 292 10.0 22.0 0.00 0.00 0.00 37 1018.4
20260509002806 65 279 12.0 24.0 0.00 0.00 0.00 38 1018.4
20260509002306 65 279 10.0 26.0 0.00 0.00 0.00 36 1018.4
20260509001805 65 274 11.0 22.0 0.00 0.00 0.00 37 1018.4
20260509001305 65 273 12.0 22.0 0.00 0.00 0.00 36 1018.4
20260509000805 65 280 8.0 26.0 0.00 0.00 0.00 36 1018.4
20260509000305 65 254 13.0 25.0 0.00 0.00 0.00 36 1018.4
20260508235805 65 268 11.0 21.0 0.00 0.00 0.00 35 1018.3
20260508235306 65 281 14.0 22.0 0.00 0.00 0.00 34 1018.2
20260508234805 65 260 13.0 26.0 0.00 0.00 0.00 35 1018.3
20260508233805 65 262 13.0 26.0 0.00 0.00 0.00 35 1018.3
20260508233305 65 277 18.0 36.0 0.00 0.00 0.00 36 1018.3
20260508232806 64 273 14.0 31.0 0.00 0.00 0.00 34 1018.3
20260508231805 64 278 16.0 32.0 0.00 0.00 0.00 36 1018.3
20260508231305 65 279 14.0 29.0 0.00 0.00 0.00 34 1018.3
20260508230805 65 274 14.0 29.0 0.00 0.00 0.00 32 1018.4
20260508230305 65 268 16.0 35.0 0.00 0.00 0.00 34 1018.3
20260508225805 64 292 13.0 28.0 0.00 0.00 0.00 34 1018.3
20260508225307 64 261 16.0 28.0 0.00 0.00 0.00 36 1018.3
20260508224805 65 274 13.0 25.0 0.00 0.00 0.00 36 1018.3
20260508224305 65 297 12.0 28.0 0.00 0.00 0.00 33 1018.3
20260508223805 65 284 16.0 25.0 0.00 0.00 0.00 36 1018.3
20260508223306 64 284 17.0 30.0 0.00 0.00 0.00 36 1018.1
20260508222805 64 256 14.0 28.0 0.00 0.00 0.00 34 1018.4
20260508222306 64 280 13.0 24.0 0.00 0.00 0.00 36 1018.6
20260508221805 64 279 14.0 23.0 0.00 0.00 0.00 38 1018.5
20260508221305 64 267 12.0 24.0 0.00 0.00 0.00 36 1018.6
20260508220805 64 297 12.0 29.0 0.00 0.00 0.00 36 1018.6
20260508220305 64 284 10.0 29.0 0.00 0.00 0.00 38 1018.5
20260508215805 64 267 14.0 25.0 0.00 0.00 0.00 37 1018.5
20260508214305 64 302 9.0 23.0 0.00 0.00 0.00 36 1018.4
20260508213305 63 278 12.0 22.0 0.00 0.00 0.00 38 1018.6
20260508212805 63 268 11.0 23.0 0.00 0.00 0.00 36 1018.5
20260508211805 62 281 12.0 22.0 0.00 0.00 0.00 38 1018.6
20260508211305 62 269 13.0 22.0 0.00 0.00 0.00 40 1018.7
20260508210805 62 268 12.0 21.0 0.00 0.00 0.00 39 1018.7
20260508210305 62 271 11.0 25.0 0.00 0.00 0.00 39 1018.7
20260508205805 62 273 11.0 25.0 0.00 0.00 0.00 41 1018.7
20260508205306 62 263 13.0 25.0 0.00 0.00 0.00 40 1018.7
20260508204305 62 282 14.0 23.0 0.00 0.00 0.00 40 1018.6
20260508203805 61 267 11.0 31.0 0.00 0.00 0.00 40 1018.7
20260508203305 61 262 13.0 24.0 0.00 0.00 0.00 41 1018.7
20260508202805 61 272 15.0 24.0 0.00 0.00 0.00 41 1018.5
20260508202307 61 302 10.0 24.0 0.00 0.00 0.00 41 1018.5
20260508201805 60 276 16.0 23.0 0.00 0.00 0.00 43 1018.6
20260508201305 60 264 12.0 29.0 0.00 0.00 0.00 42 1018.5
20260508200805 60 278 15.0 31.0 0.00 0.00 0.00 43 1018.6
20260508200305 60 278 16.0 32.0 0.00 0.00 0.00 44 1018.7
20260508195806 60 279 16.0 26.0 0.00 0.00 0.00 42 1018.7
20260508195306 60 280 15.0 32.0 0.00 0.00 0.00 43 1018.7
20260508194805 59 277 14.0 25.0 0.00 0.00 0.00 43 1018.5
20260508194305 59 270 17.0 30.0 0.00 0.00 0.00 44 1018.6
20260508193305 59 275 9.0 22.0 0.00 0.00 0.00 44 1018.5
20260508191805 58 282 12.0 25.0 0.00 0.00 0.00 45 1018.5
20260508191305 59 273 15.0 29.0 0.00 0.00 0.00 46 1018.4
20260508190805 58 259 10.0 23.0 0.00 0.00 0.00 45 1018.5
20260508190305 58 243 14.0 23.0 0.00 0.00 0.00 46 1018.5
20260508185805 58 266 13.0 24.0 0.00 0.00 0.00 45 1018.6
20260508185306 58 275 14.0 32.0 0.00 0.00 0.00 47 1018.6
20260508184804 57 257 14.0 24.0 0.00 0.00 0.00 47 1018.6
20260508184305 57 267 14.0 25.0 0.00 0.00 0.00 47 1018.6
20260508183804 57 273 12.0 24.0 0.00 0.00 0.00 46 1018.7
20260508183305 57 256 12.0 23.0 0.00 0.00 0.00 46 1018.9
20260508182805 57 275 12.0 29.0 0.00 0.00 0.00 47 1018.9
20260508182306 56 283 13.0 24.0 0.00 0.00 0.00 47 1018.8
20260508181805 56 282 16.0 26.0 0.00 0.00 0.00 48 1018.7
20260508181304 55 257 13.0 29.0 0.00 0.00 0.00 49 1018.5
20260508175804 54 277 9.0 23.0 0.00 0.00 0.00 48 1018.5
20260508175306 54 263 10.0 22.0 0.00 0.00 0.00 48 1018.5
20260508174805 54 270 12.0 28.0 0.00 0.00 0.00 48 1018.5
20260508174305 54 265 10.0 28.0 0.00 0.00 0.00 48 1018.3
20260508173305 54 281 10.0 28.0 0.00 0.00 0.00 48 1018.4
20260508172805 54 238 13.0 24.0 0.00 0.00 0.00 48 1018.2
20260508172307 54 269 10.0 24.0 0.00 0.00 0.00 48 1018.3
20260508171805 54 281 9.0 23.0 0.00 0.00 0.00 48 1018.0
20260508171305 54 285 12.0 24.0 0.00 0.00 0.00 48 1018.0
20260508170804 54 296 11.0 23.0 0.00 0.00 0.00 48 1018.0
20260508170305 54 268 13.0 24.0 0.00 0.00 0.00 48 1018.1
20260508165804 54 253 13.0 22.0 0.00 0.00 0.00 48 1018.1
20260508165306 55 277 10.0 18.0 0.00 0.00 0.00 49 1018.1
20260508164805 54 267 9.0 21.0 0.00 0.00 0.00 48 1017.9
20260508163805 54 292 10.0 20.0 0.00 0.00 0.00 50 1017.8
20260508163305 54 293 10.0 17.0 0.00 0.00 0.00 50 1017.9
20260508162805 54 270 9.0 21.0 0.00 0.00 0.00 50 1018.0
20260508162306 55 236 10.0 24.0 0.00 0.00 0.00 50 1018.0
20260508161805 55 261 8.0 22.0 0.00 0.00 0.00 50 1018.0
20260508161305 55 285 9.0 22.0 0.00 0.00 0.00 50 1018.1
20260508160805 55 256 7.0 20.0 0.00 0.00 0.00 51 1018.1
20260508160305 55 253 11.0 22.0 0.00 0.00 0.00 51 1018.1
20260508155804 55 265 10.0 20.0 0.00 0.00 0.00 51 1018.3
20260508155306 55 251 7.0 24.0 0.00 0.00 0.00 51 1018.2
20260508154305 55 270 14.0 25.0 0.00 0.00 0.00 50 1018.1
20260508153805 55 272 10.0 24.0 0.00 0.00 0.00 50 1018.1
20260508152306 55 316 10.0 28.0 0.00 0.00 0.00 52 1017.9
20260508151805 55 281 13.0 30.0 0.00 0.00 0.00 53 1017.9
20260508151305 55 253 12.0 24.0 0.00 0.00 0.00 52 1017.7
20260508150805 55 225 9.0 25.0 0.00 0.00 0.00 53 1017.9
20260508150305 55 265 13.0 25.0 0.00 0.00 0.00 52 1017.8
20260508145306 55 252 10.0 21.0 0.00 0.00 0.00 52 1017.7
20260508144805 55 254 14.0 28.0 0.00 0.00 0.00 50 1017.4
20260508144305 55 280 12.0 24.0 0.00 0.00 0.00 51 1017.3
20260508143805 55 241 12.0 22.0 0.00 0.00 0.00 52 1017.2
20260508143305 55 270 12.0 23.0 0.00 0.00 0.00 50 1017.2
20260508142805 55 262 9.0 22.0 0.00 0.00 0.00 50 1017.0
20260508142306 55 271 11.0 21.0 0.00 0.00 0.00 49 1016.9
20260508141804 55 290 9.0 18.0 0.00 0.00 0.00 48 1016.9
20260508141305 55 255 12.0 23.0 0.00 0.00 0.00 47 1016.8
20260508140805 56 273 12.0 24.0 0.00 0.00 0.00 47 1016.7
20260508140305 56 263 11.0 22.0 0.00 0.00 0.00 46 1016.7
20260508135306 56 249 10.0 24.0 0.00 0.00 0.00 45 1016.5
20260508134305 56 271 13.0 30.0 0.00 0.00 0.00 44 1016.4
20260508133805 56 285 10.0 30.0 0.00 0.00 0.00 44 1016.1
20260508133305 56 251 12.0 22.0 0.00 0.00 0.00 45 1016.2
20260508132805 56 275 13.0 30.0 0.00 0.00 0.00 46 1016.1
20260508132306 56 273 13.0 28.0 0.00 0.00 0.00 47 1016.3
20260508131805 56 271 12.0 26.0 0.00 0.00 0.00 48 1016.2
20260508130805 56 280 14.0 24.0 0.00 0.00 0.00 48 1016.0
20260508130304 56 275 12.0 29.0 0.00 0.00 0.00 50 1016.0
20260508125306 56 279 9.0 29.0 0.00 0.00 0.00 49 1015.8
20260508124805 57 234 13.0 25.0 0.00 0.00 0.00 49 1015.9
20260508123305 57 269 9.0 20.0 0.00 0.00 0.00 48 1015.7
20260508122804 56 234 6.0 15.0 0.00 0.00 0.00 49 1015.8
20260508122307 56 219 7.0 13.0 0.00 0.00 0.00 49 1015.7
20260508121805 56 153 3.0 15.0 0.00 0.00 0.00 49 1015.7
20260508121304 56 213 3.0 7.0 0.00 0.00 0.00 49 1015.7
20260508120804 56 317 3.0 6.0 0.00 0.00 0.00 50 1015.7
20260508120305 56 253 3.0 8.0 0.00 0.00 0.00 48 1015.6
20260508115805 57 145 4.0 13.0 0.00 0.00 0.00 48 1015.5
20260508115306 56 283 3.0 8.0 0.00 0.00 0.00 48 1015.5
20260508114304 57 258 3.0 8.0 0.00 0.00 0.00 47 1015.6
20260508113805 57 268 5.0 12.0 0.00 0.00 0.00 47 1015.5
20260508113305 56 237 3.0 9.0 0.00 0.00 0.00 47 1015.5
20260508112805 56 220 3.0 12.0 0.00 0.00 0.00 47 1015.5
20260508112307 56 302 2.0 8.0 0.00 0.00 0.00 47 1015.4
20260508111805 56 304 4.0 8.0 0.00 0.00 0.00 47 1015.4
20260508110805 54 195 2.0 5.0 0.00 0.00 0.00 52 1015.4
20260508105804 54 338 3.0 7.0 0.00 0.00 0.00 53 1015.4
20260508105306 54 64 2.0 3.0 0.00 0.00 0.00 53 1015.3
20260508104805 54 46 2.0 5.0 0.00 0.00 0.00 52 1015.4
20260508104305 54 137 2.0 3.0 0.00 0.00 0.00 52 1015.4
20260508103806 54 56 1.0 5.0 0.00 0.00 0.00 51 1015.4
20260508103305 54 243 3.0 6.0 0.00 0.00 0.00 51 1015.5
20260508102805 54 225 4.0 8.0 0.00 0.00 0.00 50 1015.4
20260508102306 54 267 5.0 10.0 0.00 0.00 0.00 50 1015.4
20260508101804 54 257 6.0 8.0 0.00 0.00 0.00 51 1015.4
20260508101304 54 279 5.0 9.0 0.00 0.00 0.00 50 1015.4
20260508100804 54 286 5.0 9.0 0.00 0.00 0.00 50 1015.4
20260508100304 54 283 6.0 10.0 0.00 0.00 0.00 49 1015.4
20260508095805 54 281 5.0 9.0 0.00 0.00 0.00 49 1015.4
20260508095306 54 259 5.0 9.0 0.00 0.00 0.00 48 1015.4
20260508094805 55 302 5.0 10.0 0.00 0.00 0.00 47 1015.3
20260508094305 55 275 6.0 12.0 0.00 0.00 0.00 46 1015.3
20260508093804 55 288 5.0 10.0 0.00 0.00 0.00 46 1015.3
20260508093305 54 275 5.0 8.0 0.00 0.00 0.00 48 1015.3
20260508092804 54 282 6.0 10.0 0.00 0.00 0.00 48 1015.2
20260508092312 55 253 6.0 9.0 0.00 0.00 0.00 47 1015.3
20260508091805 55 260 5.0 8.0 0.00 0.00 0.00 47 1015.3
20260508091304 55 271 4.0 8.0 0.00 0.00 0.00 47 1015.3
20260508090805 55 256 3.0 8.0 0.00 0.00 0.00 47 1015.2
20260508090305 55 254 6.0 8.0 0.00 0.00 0.00 46 1015.2
20260508085804 55 272 7.0 9.0 0.00 0.00 0.00 46 1015.2
20260508085307 55 253 6.0 10.0 0.00 0.00 0.00 46 1015.2
20260508084805 55 269 6.0 10.0 0.00 0.00 0.00 46 1015.2
20260508084305 55 258 7.0 10.0 0.00 0.00 0.00 46 1015.2
20260508083806 55 265 7.0 12.0 0.00 0.00 0.00 45 1015.2
20260508082804 55 292 6.0 12.0 0.00 0.00 0.00 45 1015.2
20260508082306 56 291 6.0 10.0 0.00 0.00 0.00 44 1015.2
20260508081805 56 286 5.0 10.0 0.00 0.00 0.00 43 1015.1
20260508081304 56 299 5.0 12.0 0.00 0.00 0.00 42 1015.1
20260508080805 56 276 6.0 10.0 0.00 0.00 0.00 42 1015.1
20260508080305 56 297 5.0 10.0 0.00 0.00 0.00 42 1015.1
20260508075805 57 292 4.0 8.0 0.00 0.00 0.00 41 1015.1
20260508075308 57 284 4.0 8.0 0.00 0.00 0.00 42 1015.1
20260508074805 57 292 3.0 8.0 0.00 0.00 0.00 40 1015.1
20260508074304 58 288 3.0 7.0 0.00 0.00 0.00 39 1015.1
20260508073804 58 266 4.0 8.0 0.00 0.00 0.00 38 1015.0
20260508073305 58 267 5.0 8.0 0.00 0.00 0.00 37 1015.1
20260508072804 59 283 4.0 8.0 0.00 0.00 0.00 36 1015.0
20260508072307 59 186 2.0 3.0 0.00 0.00 0.00 33 1015.0
20260508071304 60 234 2.0 5.0 0.00 0.00 0.00 32 1014.9
20260508070304 60 222 2.0 5.0 0.00 0.00 0.00 32 1014.9
20260508065805 60 236 2.0 7.0 0.00 0.00 0.00 33 1015.0
20260508065307 59 207 3.0 7.0 0.00 0.00 0.00 34 1015.0
20260508064804 60 210 2.0 5.0 0.00 0.00 0.00 34 1015.0
20260508064304 60 203 2.0 6.0 0.00 0.00 0.00 32 1015.0
20260508063804 60 208 3.0 7.0 0.00 0.00 0.00 33 1014.9
20260508063305 60 264 2.0 9.0 0.00 0.00 0.00 34 1015.0
20260508062804 60 228 4.0 7.0 0.00 0.00 0.00 32 1015.1
20260508062306 60 217 2.0 5.0 0.00 0.00 0.00 34 1015.0
20260508061805 60 237 1.0 3.0 0.00 0.00 0.00 34 1015.0
20260508061304 61 163 3.0 5.0 0.00 0.00 0.00 34 1014.9
20260508060805 61 207 2.0 3.0 0.00 0.00 0.00 33 1015.0
20260508060305 62 235 2.0 6.0 0.00 0.00 0.00 33 1015.0
20260508055306 62 217 3.0 6.0 0.00 0.00 0.00 32 1015.0
20260508054805 62 215 3.0 8.0 0.00 0.00 0.00 32 1015.0
20260508054305 61 228 3.0 7.0 0.00 0.00 0.00 33 1014.9
20260508053805 61 167 3.0 5.0 0.00 0.00 0.00 33 1014.9
20260508053305 61 202 3.0 8.0 0.00 0.00 0.00 34 1015.0
20260508052805 61 173 2.0 7.0 0.00 0.00 0.00 33 1015.1
20260508052307 61 202 2.0 6.0 0.00 0.00 0.00 33 1015.1
20260508051804 62 200 2.0 3.0 0.00 0.00 0.00 33 1014.9